| time (UTC) | temp F | wind direction | speed knots | gust knots | rain 1hr in | rain 24hr in | rain mn in | humidity % | barometer mb |
| 20260503054516 | 49 | 305 | 2.6 | 4.3 | 0.00 | 0.01 | 0.00 | 66 | 1008.9 |
| 20260503053519 | 49 | 332 | 2.6 | 4.3 | 0.00 | 0.01 | 0.00 | 67 | 1008.9 |
| 20260503052600 | 50 | 320 | 7.0 | 8.7 | 0.00 | 0.01 | 0.00 | 67 | 1008.7 |
| 20260503051516 | 50 | 334 | 3.5 | 6.1 | 0.00 | 0.01 | 0.00 | 66 | 1008.8 |
| 20260503050517 | 50 | 340 | 2.6 | 4.3 | 0.00 | 0.01 | 0.00 | 69 | 1008.8 |
| 20260503045520 | 49 | 293 | 2.6 | 4.3 | 0.00 | 0.01 | 0.00 | 78 | 1009.1 |
| 20260503044520 | 49 | 320 | 2.6 | 4.3 | 0.00 | 0.01 | 0.00 | 88 | 1009.2 |
| 20260503043520 | 49 | 299 | 0.0 | 0.0 | 0.00 | 0.01 | 0.00 | 90 | 1009.3 |
| 20260503042517 | 49 | 0.0 | 0.0 | 0.00 | 0.01 | 0.00 | 90 | 1009.4 | |
| 20260503041517 | 49 | 278 | 0.9 | 2.6 | 0.00 | 0.01 | 0.00 | 90 | 1009.6 |
| 20260503040517 | 49 | 233 | 0.9 | 1.7 | 0.00 | 0.01 | 0.00 | 90 | 1009.8 |
| 20260503035521 | 49 | 0.0 | 0.0 | 0.00 | 0.01 | 0.01 | 90 | 1009.8 | |
| 20260503034518 | 49 | 11 | 0.9 | 0.9 | 0.00 | 0.01 | 0.01 | 90 | 1009.7 |
| 20260503033518 | 49 | 316 | 0.9 | 1.7 | 0.00 | 0.01 | 0.01 | 90 | 1009.7 |
| 20260503032518 | 49 | 296 | 0.9 | 2.6 | 0.00 | 0.01 | 0.01 | 90 | 1009.8 |
| 20260503031518 | 49 | 319 | 1.7 | 2.6 | 0.00 | 0.01 | 0.01 | 90 | 1009.9 |
| 20260503030518 | 49 | 236 | 0.9 | 1.7 | 0.00 | 0.01 | 0.01 | 90 | 1009.9 |
| 20260503025519 | 49 | 305 | 1.7 | 1.7 | 0.00 | 0.01 | 0.01 | 89 | 1010.1 |
| 20260503024519 | 49 | 307 | 0.9 | 0.9 | 0.00 | 0.01 | 0.01 | 89 | 1010.1 |
| 20260503023519 | 49 | 290 | 0.0 | 0.9 | 0.00 | 0.01 | 0.01 | 88 | 1010.1 |
| 20260503022519 | 49 | 0.0 | 0.0 | 0.00 | 0.01 | 0.01 | 88 | 1010.0 | |
| 20260503021639 | 49 | 0.0 | 0.0 | 0.00 | 0.01 | 0.01 | 87 | 1009.9 | |
| 20260503020516 | 49 | 0.0 | 0.0 | 0.00 | 0.01 | 0.01 | 87 | 1010.2 | |
| 20260503015536 | 49 | 0.0 | 0.0 | 0.00 | 0.01 | 0.01 | 86 | 1010.4 | |
| 20260503014517 | 50 | 4 | 0.0 | 0.9 | 0.00 | 0.01 | 0.01 | 85 | 1010.4 |
| 20260503013520 | 50 | 228 | 0.0 | 0.9 | 0.00 | 0.01 | 0.01 | 84 | 1010.4 |
| 20260503012517 | 50 | 193 | 0.0 | 1.7 | 0.00 | 0.01 | 0.01 | 84 | 1010.3 |
| 20260503011537 | 50 | 213 | 0.0 | 1.7 | 0.00 | 0.01 | 0.01 | 84 | 1010.3 |
| 20260503010517 | 50 | 179 | 0.9 | 2.6 | 0.00 | 0.01 | 0.01 | 84 | 1010.2 |
| 20260503005517 | 50 | 202 | 0.9 | 1.7 | 0.00 | 0.01 | 0.01 | 84 | 1010.2 |
| 20260503004520 | 50 | 171 | 0.9 | 1.7 | 0.00 | 0.01 | 0.01 | 84 | 1010.1 |
| 20260503003518 | 50 | 165 | 1.7 | 3.5 | 0.00 | 0.01 | 0.01 | 84 | 1010.0 |
| 20260503002518 | 50 | 172 | 1.7 | 4.3 | 0.00 | 0.01 | 0.01 | 84 | 1009.9 |
| 20260503001518 | 50 | 170 | 1.7 | 1.7 | 0.00 | 0.01 | 0.01 | 84 | 1010.0 |
| 20260503000518 | 50 | 189 | 0.9 | 1.7 | 0.00 | 0.01 | 0.01 | 83 | 1010.1 |
| 20260502235518 | 50 | 189 | 0.9 | 1.7 | 0.00 | 0.01 | 0.01 | 83 | 1010.0 |
| 20260502234538 | 51 | 226 | 0.9 | 2.6 | 0.00 | 0.01 | 0.01 | 82 | 1010.2 |
| 20260502233518 | 51 | 194 | 0.9 | 0.9 | 0.00 | 0.01 | 0.01 | 82 | 1010.1 |
| 20260502232540 | 51 | 162 | 1.7 | 2.6 | 0.00 | 0.01 | 0.01 | 82 | 1009.9 |
| 20260502231516 | 51 | 149 | 1.7 | 2.6 | 0.00 | 0.01 | 0.01 | 81 | 1010.0 |
| 20260502230516 | 51 | 155 | 1.7 | 2.6 | 0.00 | 0.01 | 0.01 | 82 | 1010.1 |
| 20260502225519 | 51 | 167 | 0.9 | 1.7 | 0.00 | 0.01 | 0.01 | 81 | 1010.1 |
| 20260502224600 | 51 | 179 | 0.9 | 1.7 | 0.00 | 0.01 | 0.01 | 81 | 1010.0 |
| 20260502223520 | 51 | 223 | 0.9 | 2.6 | 0.00 | 0.01 | 0.01 | 80 | 1009.9 |
| 20260502222517 | 51 | 144 | 1.7 | 2.6 | 0.00 | 0.01 | 0.01 | 81 | 1009.9 |
| 20260502221517 | 51 | 234 | 0.9 | 3.5 | 0.00 | 0.01 | 0.01 | 80 | 1010.0 |
| 20260502220518 | 52 | 230 | 3.5 | 4.3 | 0.00 | 0.01 | 0.01 | 78 | 1009.9 |
| 20260502215517 | 52 | 196 | 2.6 | 3.5 | 0.00 | 0.01 | 0.01 | 78 | 1009.9 |
| 20260502214518 | 52 | 166 | 2.6 | 5.2 | 0.00 | 0.01 | 0.01 | 78 | 1010.0 |
| 20260502213518 | 53 | 255 | 1.7 | 3.5 | 0.00 | 0.01 | 0.01 | 76 | 1009.8 |
| 20260502212518 | 53 | 228 | 2.6 | 5.2 | 0.00 | 0.01 | 0.01 | 75 | 1009.6 |
| 20260502211518 | 53 | 233 | 1.7 | 2.6 | 0.00 | 0.01 | 0.01 | 75 | 1009.7 |
| 20260502210518 | 53 | 172 | 3.5 | 6.1 | 0.00 | 0.01 | 0.01 | 75 | 1009.5 |
| 20260502205518 | 53 | 187 | 3.5 | 6.1 | 0.00 | 0.01 | 0.01 | 76 | 1009.6 |
| 20260502204518 | 53 | 202 | 2.6 | 3.5 | 0.00 | 0.01 | 0.01 | 78 | 1009.7 |
| 20260502203518 | 52 | 190 | 1.7 | 2.6 | 0.00 | 0.01 | 0.01 | 78 | 1009.8 |
| 20260502202520 | 52 | 185 | 2.6 | 4.3 | 0.00 | 0.01 | 0.01 | 78 | 1009.7 |
| 20260502201516 | 52 | 206 | 3.5 | 5.2 | 0.00 | 0.01 | 0.01 | 77 | 1009.8 |
| 20260502200516 | 52 | 193 | 4.3 | 7.0 | 0.01 | 0.01 | 0.01 | 76 | 1010.0 |
| 20260502195519 | 52 | 214 | 2.6 | 6.1 | 0.01 | 0.01 | 0.01 | 76 | 1010.2 |
| 20260502194520 | 52 | 213 | 3.5 | 5.2 | 0.01 | 0.01 | 0.01 | 75 | 1010.2 |
| 20260502193540 | 52 | 203 | 1.7 | 3.5 | 0.01 | 0.01 | 0.01 | 74 | 1010.5 |
| 20260502192517 | 52 | 203 | 5.2 | 7.0 | 0.01 | 0.01 | 0.01 | 73 | 1011.0 |
| 20260502191517 | 53 | 154 | 7.0 | 9.6 | 0.01 | 0.01 | 0.01 | 70 | 1010.8 |
| 20260502190517 | 53 | 198 | 7.8 | 11.3 | 0.00 | 0.00 | 0.00 | 64 | 1010.6 |
| 20260502185540 | 54 | 181 | 7.8 | 12.2 | 0.00 | 0.00 | 0.00 | 61 | 1010.9 |
| 20260502184538 | 55 | 173 | 3.5 | 6.1 | 0.00 | 0.00 | 0.00 | 60 | 1010.1 |
| 20260502183518 | 54 | 199 | 3.5 | 6.1 | 0.00 | 0.00 | 0.00 | 65 | 1010.2 |
| 20260502181518 | 54 | 186 | 4.3 | 6.1 | 0.00 | 0.00 | 0.00 | 64 | 1010.3 |
| 20260502180538 | 54 | 169 | 4.3 | 6.1 | 0.00 | 0.00 | 0.00 | 66 | 1010.8 |
| 20260502170517 | 57 | 178 | 2.6 | 4.3 | 0.00 | 0.00 | 0.00 | 50 | 1010.6 |
| 20260502163520 | 58 | 162 | 7.8 | 10.4 | 0.00 | 0.00 | 0.00 | 51 | 1009.1 |
| 20260502162517 | 57 | 181 | 4.3 | 6.1 | 0.00 | 0.00 | 0.00 | 53 | 1009.9 |
| 20260502161517 | 57 | 180 | 4.3 | 7.0 | 0.00 | 0.00 | 0.00 | 55 | 1010.3 |
| 20260502160517 | 57 | 214 | 2.6 | 4.3 | 0.00 | 0.00 | 0.00 | 58 | 1010.2 |
| 20260502151518 | 56 | 174 | 1.7 | 2.6 | 0.00 | 0.00 | 0.00 | 65 | 1010.8 |
| 20260502150518 | 56 | 156 | 5.2 | 7.0 | 0.00 | 0.00 | 0.00 | 65 | 1011.5 |
| 20260502130517 | 52 | 260 | 2.6 | 5.2 | 0.00 | 0.00 | 0.00 | 76 | 1011.3 |
| 20260502123518 | 52 | 259 | 2.6 | 6.1 | 0.00 | 0.00 | 0.00 | 75 | 1011.7 |
| 20260502122518 | 51 | 186 | 2.6 | 5.2 | 0.00 | 0.00 | 0.00 | 75 | 1011.4 |
| 20260502121538 | 51 | 260 | 4.3 | 7.0 | 0.00 | 0.00 | 0.00 | 75 | 1010.9 |
| 20260502120518 | 51 | 158 | 1.7 | 2.6 | 0.00 | 0.00 | 0.00 | 76 | 1011.1 |
| 20260502115518 | 50 | 150 | 2.6 | 4.3 | 0.00 | 0.00 | 0.00 | 78 | 1010.6 |
| 20260502114539 | 49 | 135 | 0.9 | 3.5 | 0.00 | 0.00 | 0.00 | 78 | 1011.4 |
| 20260502113519 | 48 | 158 | 3.5 | 6.1 | 0.00 | 0.00 | 0.00 | 78 | 1011.2 |
| 20260502112519 | 48 | 157 | 3.5 | 5.2 | 0.00 | 0.00 | 0.00 | 78 | 1011.4 |
| 20260502111518 | 48 | 220 | 0.9 | 1.7 | 0.00 | 0.00 | 0.00 | 79 | 1011.5 |
| 20260502110516 | 48 | 177 | 0.9 | 2.6 | 0.00 | 0.00 | 0.00 | 80 | 1011.3 |
| 20260502105519 | 47 | 251 | 1.7 | 2.6 | 0.00 | 0.00 | 0.00 | 80 | 1011.3 |
| 20260502104519 | 47 | 136 | 0.9 | 1.7 | 0.00 | 0.00 | 0.00 | 81 | 1011.2 |
| 20260502103519 | 46 | 160 | 1.7 | 2.6 | 0.00 | 0.00 | 0.00 | 82 | 1011.4 |
| 20260502102537 | 45 | 191 | 1.7 | 1.7 | 0.00 | 0.00 | 0.00 | 85 | 1011.6 |
| 20260502101517 | 44 | 185 | 1.7 | 3.5 | 0.00 | 0.00 | 0.00 | 86 | 1011.8 |
| 20260502100517 | 44 | 208 | 0.0 | 1.7 | 0.00 | 0.00 | 0.00 | 87 | 1011.7 |
| 20260502091517 | 43 | 83 | 0.0 | 0.9 | 0.00 | 0.00 | 0.00 | 89 | 1011.5 |
| 20260502090518 | 43 | 339 | 0.0 | 0.0 | 0.00 | 0.00 | 0.00 | 89 | 1011.6 |
| 20260502070516 | 43 | 260 | 0.0 | 1.7 | 0.00 | 0.00 | 0.00 | 82 | 1012.0 |
| 20260502065517 | 43 | 275 | 0.9 | 1.7 | 0.00 | 0.00 | 0.00 | 82 | 1011.9 |
| 20260502064517 | 43 | 42 | 0.0 | 0.9 | 0.00 | 0.00 | 0.00 | 83 | 1011.7 |
| 20260502063540 | 43 | 0.0 | 0.0 | 0.00 | 0.00 | 0.00 | 83 | 1011.8 | |
| 20260502062518 | 43 | 149 | 0.0 | 0.0 | 0.00 | 0.00 | 0.00 | 81 | 1011.8 |
| 20260502061517 | 42 | 212 | 0.0 | 0.9 | 0.00 | 0.00 | 0.00 | 80 | 1011.9 |
| 20260502060517 | 43 | 121 | 0.0 | 0.9 | 0.00 | 0.00 | 0.00 | 79 | 1011.9 |
| 20260502055519 | 43 | 185 | 0.0 | 0.9 | 0.00 | 0.00 | 0.00 | 79 | 1012.3 |